TimeCST,TemperatureF,Dew PointF,Humidity,Sea Level PressureIn,VisibilityMPH,Wind Direction,Wind SpeedMPH,Gust SpeedMPH,PrecipitationIn,Events,Conditions,WindDirDegrees,DateUTC
12:41 AM,12.2,6.8,79,30.24,10.0,NNW,15.0,-,0.00,Snow,Light Snow,330,2013-02-20 06:41:00
12:48 AM,12.2,6.8,79,30.23,9.0,NNW,16.1,-,0.00,Snow,Light Snow,340,2013-02-20 06:48:00
12:56 AM,12.0,5.0,73,30.32,10.0,NNW,15.0,-,0.00,Snow,Light Snow,340,2013-02-20 06:56:00
1:04 AM,10.4,5.0,79,30.24,10.0,NW,15.0,-,0.00,Snow,Light Snow,320,2013-02-20 07:04:00
1:09 AM,10.4,5.0,79,30.24,10.0,NNW,16.1,-,0.00,Snow,Light Snow,330,2013-02-20 07:09:00
1:16 AM,10.4,5.0,79,30.25,10.0,NNW,15.0,-,0.00,Snow,Light Snow,330,2013-02-20 07:16:00
1:42 AM,10.4,3.2,73,30.27,10.0,NW,13.8,-,0.00,,Scattered Clouds,320,2013-02-20 07:42:00
1:56 AM,10.0,4.1,77,30.36,10.0,NNW,13.8,-,0.00,,Partly Cloudy,330,2013-02-20 07:56:00
2:14 AM,10.4,3.2,73,30.27,10.0,NNW,9.2,-,0.00,Snow,Light Snow,330,2013-02-20 08:14:00
2:24 AM,8.6,3.2,79,30.27,10.0,NW,13.8,-,0.00,Snow,Light Snow,320,2013-02-20 08:24:00
2:35 AM,8.6,3.2,79,30.27,10.0,NW,12.7,-,0.00,Snow,Light Snow,320,2013-02-20 08:35:00
2:43 AM,8.6,3.2,79,30.27,10.0,NNW,13.8,-,0.00,Snow,Light Snow,330,2013-02-20 08:43:00
2:56 AM,9.1,3.0,76,30.35,10.0,NNW,16.1,-,0.00,,Partly Cloudy,330,2013-02-20 08:56:00
5:56 AM,6.1,0.1,77,30.38,10.0,NNW,15.0,-,0.00,Snow,Light Snow,330,2013-02-20 11:56:00
6:56 AM,6.1,-0.9,73,30.41,10.0,NNW,11.5,-,0.00,,Clear,330,2013-02-20 12:56:00
7:56 AM,8.1,0.1,70,30.44,10.0,NNW,11.5,-,N/A,,Clear,340,2013-02-20 13:56:00
8:56 AM,11.1,2.1,67,30.42,10.0,NNW,12.7,-,N/A,,Clear,340,2013-02-20 14:56:00
9:56 AM,14.0,3.0,62,30.44,10.0,WNW,8.1,-,0.00,,Clear,300,2013-02-20 15:56:00
10:56 AM,17.1,4.1,57,30.44,10.0,WNW,8.1,-,N/A,,Clear,290,2013-02-20 16:56:00
11:56 AM,20.1,5.0,52,30.46,10.0,West,9.2,-,N/A,,Clear,270,2013-02-20 17:56:00
1:56 PM,24.1,8.1,51,30.41,10.0,NW,11.5,-,0.00,,Clear,310,2013-02-20 19:56:00
3:56 PM,23.0,13.1,66,30.41,10.0,NNW,8.1,-,N/A,,Clear,340,2013-02-20 21:56:00
4:56 PM,22.1,13.1,68,30.42,10.0,NNW,9.2,-,N/A,,Clear,340,2013-02-20 22:56:00
5:56 PM,21.0,13.1,71,30.41,10.0,North,8.1,-,N/A,,Clear,350,2013-02-20 23:56:00
6:56 PM,21.0,14.0,74,30.42,10.0,NNE,10.4,-,N/A,,Clear,20,2013-02-21 00:56:00
7:56 PM,19.0,15.1,85,30.40,10.0,NNE,11.5,-,N/A,,Clear,30,2013-02-21 01:56:00
8:56 PM,18.1,14.0,84,30.41,10.0,NE,8.1,-,N/A,,Clear,40,2013-02-21 02:56:00
9:56 PM,16.2,14.0,91,30.43,10.0,NNE,8.1,-,N/A,,Clear,30,2013-02-21 03:56:00
10:56 PM,16.2,13.1,88,30.41,10.0,NE,9.2,-,N/A,,Clear,40,2013-02-21 04:56:00
11:56 PM,15.1,12.0,88,30.43,10.0,NNE,5.8,-,N/A,,Clear,30,2013-02-21 05:56:00